• In Latvia
  • List of Countries
  • For 7 days
  • Water Temperature
  • Satellite Maps
  • Weather Map
  • Weather Widgets
  • user-avatar
    Login

    Hourly Weather Satif

    Today, 13 December, Wednesday

    Time Temperature Precipitation Wind Pressure Humidity
    00:00 +6°C° 0 mm 2 mps 674 mmHg 65%
    01:00 +7°C° 0.1 mm 1 mps 674 mmHg 67%
    02:00 +6°C° 0.1 mm 1 mps 674 mmHg 68%
    03:00 +6°C° 0.1 mm 1 mps 674 mmHg 70%
    04:00 +6°C° 0.1 mm 1 mps 674 mmHg 71%
    05:00 +6°C° 0.1 mm 1 mps 674 mmHg 72%
    06:00 +5°C° 0 mm 1 mps 675 mmHg 75%
    07:00 +6°C° 0 mm 1 mps 675 mmHg 73%
    08:00 +7°C° 0 mm 1 mps 676 mmHg 70%
    09:00 +8°C° 0 mm 1 mps 676 mmHg 67%
    10:00 +8°C° 0 mm 2 mps 677 mmHg 65%
    11:00 +8°C° 0 mm 2 mps 677 mmHg 63%
    12:00 +8°C° 0 mm 2 mps 677 mmHg 63%
    13:00 +8°C° 0 mm 2 mps 677 mmHg 62%
    14:00 +8°C° 0 mm 2 mps 677 mmHg 61%
    15:00 +9°C° 0 mm 2 mps 677 mmHg 60%
    16:00 +7°C° 0 mm 2 mps 676 mmHg 66%
    17:00 +7°C° 0 mm 1 mps 676 mmHg 71%
    18:00 +6°C° 0 mm 1 mps 676 mmHg 77%
    19:00 +6°C° 0 mm 1 mps 676 mmHg 79%
    20:00 +5°C° 0 mm 1 mps 676 mmHg 82%
    21:00 +5°C° 0 mm 1 mps 676 mmHg 84%
    22:00 +5°C° 0 mm 1 mps 676 mmHg 84%
    23:00 +4°C° 0 mm 1 mps 676 mmHg 84%

    Tomorrow, 14 December, Thursday

    Time Temperature Precipitation Wind Pressure Humidity
    00:00 +4°C° 0 mm 1 mps 676 mmHg 84%
    01:00 +4°C° 0 mm 1 mps 676 mmHg 82%
    02:00 +4°C° 0 mm 1 mps 675 mmHg 81%
    03:00 +3°C° 0 mm 2 mps 675 mmHg 79%
    04:00 +3°C° 0 mm 2 mps 675 mmHg 78%
    05:00 +2°C° 0 mm 2 mps 675 mmHg 77%
    06:00 +2°C° 0 mm 2 mps 675 mmHg 75%
    07:00 +4°C° 0 mm 2 mps 675 mmHg 68%
    08:00 +6°C° 0 mm 2 mps 676 mmHg 60%
    09:00 +7°C° 0 mm 2 mps 676 mmHg 53%
    10:00 +9°C° 0 mm 2 mps 676 mmHg 47%
    11:00 +10°C° 0 mm 2 mps 676 mmHg 40%
    12:00 +12°C° 0 mm 2 mps 676 mmHg 34%
    13:00 +12°C° 0 mm 2 mps 676 mmHg 35%
    14:00 +12°C° 0 mm 2 mps 675 mmHg 36%
    15:00 +12°C° 0 mm 2 mps 675 mmHg 37%
    16:00 +10°C° 0 mm 2 mps 674 mmHg 43%
    17:00 +8°C° 0 mm 2 mps 674 mmHg 49%
    18:00 +7°C° 0 mm 2 mps 673 mmHg 55%
    19:00 +6°C° 0 mm 2 mps 673 mmHg 57%
    20:00 +6°C° 0 mm 2 mps 673 mmHg 59%
    21:00 +5°C° 0 mm 3 mps 673 mmHg 61%
    22:00 +5°C° 0 mm 3 mps 673 mmHg 62%
    23:00 +5°C° 0 mm 3 mps 672 mmHg 63%

    Day after tomorrow, 15 December, Friday

    Time Temperature Precipitation Wind Pressure Humidity
    00:00 +5°C° 0 mm 3 mps 672 mmHg 65%
    01:00 +4°C° 0 mm 3 mps 672 mmHg 65%
    02:00 +4°C° 0 mm 3 mps 671 mmHg 65%
    03:00 +4°C° 0 mm 3 mps 671 mmHg 65%
    04:00 +4°C° 0 mm 3 mps 671 mmHg 66%
    05:00 +4°C° 0 mm 3 mps 671 mmHg 66%
    06:00 +3°C° 0 mm 3 mps 670 mmHg 66%
    07:00 +5°C° 0 mm 3 mps 671 mmHg 61%
    08:00 +6°C° 0 mm 4 mps 671 mmHg 55%
    09:00 +8°C° 0 mm 4 mps 671 mmHg 49%
    10:00 +9°C° 0 mm 5 mps 671 mmHg 43%
    11:00 +12°C° 0 mm 5 mps 671 mmHg 37%
    12:00 +13°C° 0 mm 6 mps 671 mmHg 32%
    13:00 +13°C° 0 mm 5 mps 670 mmHg 33%
    14:00 +13°C° 0 mm 5 mps 670 mmHg 34%
    15:00 +13°C° 0 mm 4 mps 669 mmHg 35%
    16:00 +11°C° 0 mm 3 mps 669 mmHg 40%
    17:00 +9°C° 0 mm 3 mps 668 mmHg 45%
    18:00 +8°C° 0 mm 2 mps 668 mmHg 50%
    19:00 +8°C° 0 mm 2 mps 668 mmHg 49%
    20:00 +8°C° 0 mm 2 mps 668 mmHg 49%
    21:00 +8°C° 0 mm 2 mps 668 mmHg 48%
    22:00 +8°C° 0 mm 2 mps 668 mmHg 49%
    23:00 +8°C° 0 mm 2 mps 667 mmHg 51%

    16 December, Saturday

    Time Temperature Precipitation Wind Pressure Humidity
    00:00 +7°C° 0 mm 2 mps 667 mmHg 52%
    01:00 +7°C° 0.1 mm 2 mps 667 mmHg 55%
    02:00 +7°C° 0.1 mm 2 mps 666 mmHg 58%
    03:00 +6°C° 0.1 mm 2 mps 666 mmHg 61%
    04:00 +6°C° 0.3 mm 2 mps 666 mmHg 65%
    05:00 +6°C° 0.3 mm 2 mps 666 mmHg 69%
    06:00 +5°C° 0.3 mm 2 mps 666 mmHg 73%
    07:00 +5°C° 0.7 mm 3 mps 667 mmHg 76%
    08:00 +5°C° 0.7 mm 3 mps 668 mmHg 79%
    09:00 +5°C° 0.7 mm 3 mps 668 mmHg 81%
    10:00 +5°C° 0.1 mm 3 mps 669 mmHg 81%
    11:00 +5°C° 0.1 mm 3 mps 669 mmHg 80%
    12:00 +5°C° 0.1 mm 3 mps 669 mmHg 80%
    13:00 +5°C° 0 mm 3 mps 669 mmHg 77%
    14:00 +5°C° 0 mm 3 mps 669 mmHg 74%
    15:00 +5°C° 0 mm 3 mps 670 mmHg 71%
    16:00 +6°C° 0 mm 2 mps 670 mmHg 74%
    17:00 +5°C° 0 mm 2 mps 670 mmHg 77%
    18:00 +5°C° 0 mm 1 mps 671 mmHg 80%
    19:00 +5°C° 0 mm 1 mps 671 mmHg 82%
    20:00 +4°C° 0 mm 1 mps 671 mmHg 85%
    21:00 +4°C° 0 mm 1 mps 672 mmHg 87%
    22:00 +3°C° 0 mm 1 mps 672 mmHg 88%
    23:00 +3°C° 0 mm 1 mps 672 mmHg 88%

    17 December, Sunday

    Time Temperature Precipitation Wind Pressure Humidity
    00:00 +3°C° 0 mm 1 mps 672 mmHg 89%
    01:00 +2°C° 0 mm 0 mps 672 mmHg 89%
    02:00 +1°C° 0 mm 0 mps 672 mmHg 88%
    03:00 +1°C° 0 mm 0 mps 672 mmHg 88%
    04:00 +1°C° 0 mm 0 mps 672 mmHg 88%
    05:00 +1°C° 0 mm 0 mps 672 mmHg 87%
    06:00 +1°C° 0 mm 0 mps 672 mmHg 87%
    07:00 +2°C° 0.1 mm 0 mps 673 mmHg 82%
    08:00 +3°C° 0.1 mm 0 mps 674 mmHg 78%
    09:00 +4°C° 0.1 mm 0 mps 674 mmHg 73%
    10:00 +6°C° 0.2 mm 1 mps 675 mmHg 72%
    11:00 +6°C° 0.2 mm 1 mps 675 mmHg 70%
    12:00 +7°C° 0.2 mm 1 mps 675 mmHg 69%
    13:00 +6°C° 0.3 mm 1 mps 675 mmHg 71%
    14:00 +5°C° 0.3 mm 2 mps 675 mmHg 73%
    15:00 +5°C° 0.3 mm 2 mps 675 mmHg 75%
    16:00 +5°C° 0.2 mm 2 mps 675 mmHg 78%
    17:00 +3°C° 0.2 mm 3 mps 676 mmHg 82%
    18:00 +3°C° 0.2 mm 3 mps 676 mmHg 86%
    19:00 +4°C° 0.1 mm 2 mps 676 mmHg 86%
    20:00 +3°C° 0.1 mm 2 mps 677 mmHg 87%
    21:00 +3°C° 0.1 mm 2 mps 677 mmHg 88%
    22:00 +3°C° 0 mm 2 mps 677 mmHg 89%
    23:00 +3°C° 0 mm 2 mps 677 mmHg 90%

    18 December, Monday

    Time Temperature Precipitation Wind Pressure Humidity
    00:00 +2°C° 0 mm 2 mps 677 mmHg 91%
    01:00 +2°C° 0.1 mm 2 mps 677 mmHg 89%
    02:00 +1°C° 0.1 mm 3 mps 678 mmHg 87%
    03:00 +1°C° 0.1 mm 3 mps 678 mmHg 84%
    04:00 +1°C° 0.1 mm 3 mps 678 mmHg 85%
    05:00 +2°C° 0.1 mm 2 mps 678 mmHg 86%
    06:00 +1°C° 0.1 mm 2 mps 678 mmHg 87%
    07:00 +2°C° 0.1 mm 2 mps 678 mmHg 83%
    08:00 +2°C° 0.1 mm 3 mps 679 mmHg 80%
    09:00 +2°C° 0.1 mm 3 mps 679 mmHg 76%
    10:00 +3°C° 0.1 mm 4 mps 679 mmHg 75%
    11:00 +3°C° 0.1 mm 4 mps 679 mmHg 73%
    12:00 +3°C° 0.1 mm 4 mps 679 mmHg 72%
    13:00 +3°C° 0.1 mm 4 mps 679 mmHg 72%
    14:00 +2°C° 0.1 mm 5 mps 678 mmHg 73%
    15:00 +2°C° 0.1 mm 5 mps 678 mmHg 73%
    16:00 +3°C° 0.1 mm 4 mps 678 mmHg 77%
    17:00 +2°C° 0.1 mm 3 mps 678 mmHg 81%
    18:00 +2°C° 0.1 mm 3 mps 679 mmHg 84%
    19:00 +2°C° 0 mm 2 mps 679 mmHg 87%
    20:00 +2°C° 0 mm 2 mps 679 mmHg 89%
    21:00 +3°C° 0 mm 1 mps 679 mmHg 91%
    22:00 +3°C° 0 mm 1 mps 679 mmHg 91%
    23:00 +3°C° 0 mm 1 mps 679 mmHg 91%
    Show more